When you browse on this site, cookies collect data to enhance your experience and personalize the content and advertising you see.
Visit our Privacy Policy to learn more. By continuing to use the site, you agree to this use of cookies and data.
  • în România
  • Lista ţărilor
  • Pe 7 zile
  • Temperatura apei
  • Hartă satelitară
  • Meteo pe hartă
  • Widget-uri
  • user-avatar
    Intrare

    Meteo pe oră la Dolgovka

    Astăzi, 19 Iulie, Vineri

    Timp Temperatura Precipitaţii Vânt Presiune Umiditate
    00:00 +12°C° 0 mm 3 m/s 739 mmHg 91%
    01:00 +12°C° 0 mm 3 m/s 739 mmHg 92%
    02:00 +12°C° 0 mm 3 m/s 739 mmHg 94%
    03:00 +12°C° 0 mm 3 m/s 739 mmHg 97%
    04:00 +12°C° 0.4 mm 4 m/s 739 mmHg 96%
    05:00 +13°C° 0.4 mm 4 m/s 739 mmHg 95%
    06:00 +13°C° 0.4 mm 5 m/s 738 mmHg 95%
    07:00 +13°C° 0.3 mm 5 m/s 738 mmHg 95%
    08:00 +13°C° 0.3 mm 5 m/s 739 mmHg 94%
    09:00 +13°C° 0.3 mm 6 m/s 739 mmHg 94%
    10:00 +15°C° 0.3 mm 6 m/s 739 mmHg 91%
    11:00 +16°C° 0.3 mm 6 m/s 739 mmHg 88%
    12:00 +17°C° 0.3 mm 6 m/s 739 mmHg 84%
    13:00 +19°C° 0.4 mm 6 m/s 739 mmHg 82%
    14:00 +20°C° 0.4 mm 6 m/s 739 mmHg 79%
    15:00 +20°C° 0.4 mm 6 m/s 739 mmHg 76%
    16:00 +20°C° 0.1 mm 6 m/s 740 mmHg 78%
    17:00 +20°C° 0.1 mm 6 m/s 740 mmHg 79%
    18:00 +20°C° 0.1 mm 5 m/s 740 mmHg 81%
    19:00 +17°C° 0 mm 5 m/s 740 mmHg 84%
    20:00 +16°C° 0 mm 5 m/s 740 mmHg 88%
    21:00 +15°C° 0 mm 4 m/s 740 mmHg 92%
    22:00 +14°C° 0 mm 4 m/s 741 mmHg 91%
    23:00 +14°C° 0 mm 5 m/s 741 mmHg 90%

    Mâine, 20 Iulie, Sâmbătă

    Timp Temperatura Precipitaţii Vânt Presiune Umiditate
    00:00 +14°C° 0 mm 5 m/s 741 mmHg 90%
    01:00 +14°C° 0 mm 5 m/s 741 mmHg 90%
    02:00 +14°C° 0 mm 5 m/s 741 mmHg 89%
    03:00 +13°C° 0 mm 6 m/s 742 mmHg 89%
    04:00 +14°C° 0 mm 6 m/s 742 mmHg 89%
    05:00 +14°C° 0 mm 6 m/s 742 mmHg 89%
    06:00 +14°C° 0 mm 6 m/s 742 mmHg 89%
    07:00 +15°C° 0 mm 6 m/s 742 mmHg 87%
    08:00 +15°C° 0 mm 6 m/s 743 mmHg 85%
    09:00 +16°C° 0 mm 6 m/s 743 mmHg 83%
    10:00 +17°C° 0 mm 6 m/s 743 mmHg 82%
    11:00 +19°C° 0 mm 6 m/s 743 mmHg 80%
    12:00 +19°C° 0 mm 6 m/s 744 mmHg 79%
    13:00 +20°C° 0.6 mm 6 m/s 744 mmHg 79%
    14:00 +20°C° 0.6 mm 6 m/s 744 mmHg 79%
    15:00 +20°C° 0.6 mm 6 m/s 744 mmHg 79%
    16:00 +20°C° 0.5 mm 6 m/s 744 mmHg 81%
    17:00 +20°C° 0.5 mm 6 m/s 744 mmHg 82%
    18:00 +20°C° 0.5 mm 5 m/s 744 mmHg 84%
    19:00 +17°C° 0 mm 5 m/s 745 mmHg 87%
    20:00 +17°C° 0 mm 4 m/s 745 mmHg 90%
    21:00 +16°C° 0 mm 3 m/s 745 mmHg 93%
    22:00 +15°C° 0 mm 4 m/s 745 mmHg 94%
    23:00 +15°C° 0 mm 4 m/s 745 mmHg 94%

    Poimâine, 21 Iulie, Duminică

    Timp Temperatura Precipitaţii Vânt Presiune Umiditate
    00:00 +14°C° 0 mm 4 m/s 746 mmHg 95%
    01:00 +14°C° 0 mm 4 m/s 746 mmHg 95%
    02:00 +14°C° 0 mm 4 m/s 746 mmHg 96%
    03:00 +13°C° 0 mm 4 m/s 745 mmHg 96%
    04:00 +14°C° 0 mm 4 m/s 746 mmHg 95%
    05:00 +14°C° 0 mm 4 m/s 746 mmHg 95%
    06:00 +14°C° 0 mm 4 m/s 746 mmHg 94%
    07:00 +15°C° 0 mm 4 m/s 746 mmHg 91%
    08:00 +17°C° 0 mm 5 m/s 746 mmHg 87%
    09:00 +19°C° 0 mm 5 m/s 746 mmHg 84%
    10:00 +20°C° 0.3 mm 4 m/s 746 mmHg 81%
    11:00 +21°C° 0.3 mm 4 m/s 746 mmHg 78%
    12:00 +22°C° 0.3 mm 4 m/s 746 mmHg 75%
    13:00 +22°C° 0.5 mm 5 m/s 746 mmHg 74%
    14:00 +23°C° 0.5 mm 5 m/s 746 mmHg 73%
    15:00 +23°C° 0.5 mm 5 m/s 746 mmHg 72%
    16:00 +22°C° 1 mm 5 m/s 746 mmHg 75%
    17:00 +22°C° 1 mm 5 m/s 746 mmHg 78%
    18:00 +21°C° 1 mm 4 m/s 746 mmHg 81%
    19:00 +20°C° 0.1 mm 4 m/s 746 mmHg 85%
    20:00 +19°C° 0.1 mm 3 m/s 746 mmHg 89%
    21:00 +17°C° 0.1 mm 3 m/s 746 mmHg 92%
    22:00 +17°C° 0 mm 3 m/s 746 mmHg 93%
    23:00 +16°C° 0 mm 2 m/s 746 mmHg 93%

    22 Iulie, Luni

    Timp Temperatura Precipitaţii Vânt Presiune Umiditate
    00:00 +15°C° 0 mm 2 m/s 746 mmHg 94%
    01:00 +15°C° 0 mm 2 m/s 746 mmHg 94%
    02:00 +15°C° 0 mm 2 m/s 746 mmHg 94%
    03:00 +14°C° 0 mm 2 m/s 746 mmHg 94%
    04:00 +15°C° 0 mm 2 m/s 746 mmHg 93%
    05:00 +15°C° 0 mm 2 m/s 746 mmHg 93%
    06:00 +15°C° 0 mm 1 m/s 746 mmHg 92%
    07:00 +18°C° 0 mm 1 m/s 746 mmHg 87%
    08:00 +18°C° 0 mm 2 m/s 746 mmHg 82%
    09:00 +20°C° 0 mm 2 m/s 746 mmHg 77%
    10:00 +21°C° 0 mm 2 m/s 746 mmHg 72%
    11:00 +23°C° 0 mm 2 m/s 746 mmHg 67%
    12:00 +24°C° 0 mm 2 m/s 745 mmHg 62%
    13:00 +24°C° 0.1 mm 2 m/s 745 mmHg 60%
    14:00 +25°C° 0.1 mm 2 m/s 745 mmHg 59%
    15:00 +25°C° 0.1 mm 2 m/s 745 mmHg 57%
    16:00 +25°C° 0.1 mm 1 m/s 745 mmHg 59%
    17:00 +25°C° 0.1 mm 1 m/s 744 mmHg 61%
    18:00 +25°C° 0.1 mm 1 m/s 744 mmHg 64%
    19:00 +23°C° 0 mm 1 m/s 744 mmHg 69%
    20:00 +21°C° 0 mm 1 m/s 744 mmHg 73%
    21:00 +19°C° 0 mm 1 m/s 744 mmHg 78%
    22:00 +18°C° 0 mm 1 m/s 744 mmHg 80%
    23:00 +18°C° 0 mm 1 m/s 744 mmHg 81%

    23 Iulie, Marţi

    Timp Temperatura Precipitaţii Vânt Presiune Umiditate
    00:00 +16°C° 0 mm 1 m/s 744 mmHg 82%
    01:00 +15°C° 0 mm 1 m/s 743 mmHg 85%
    02:00 +15°C° 0 mm 2 m/s 743 mmHg 88%
    03:00 +14°C° 0 mm 2 m/s 743 mmHg 91%
    04:00 +14°C° 0 mm 2 m/s 743 mmHg 91%
    05:00 +15°C° 0 mm 2 m/s 743 mmHg 90%
    06:00 +15°C° 0 mm 2 m/s 743 mmHg 90%
    07:00 +17°C° 0 mm 2 m/s 743 mmHg 85%
    08:00 +18°C° 0 mm 3 m/s 743 mmHg 81%
    09:00 +20°C° 0 mm 3 m/s 743 mmHg 76%
    10:00 +20°C° 0 mm 3 m/s 743 mmHg 72%
    11:00 +21°C° 0 mm 3 m/s 743 mmHg 68%
    12:00 +22°C° 0 mm 3 m/s 743 mmHg 64%
    13:00 +22°C° 0 mm 3 m/s 743 mmHg 62%
    14:00 +24°C° 0 mm 3 m/s 743 mmHg 60%
    15:00 +24°C° 0 mm 3 m/s 742 mmHg 58%
    16:00 +24°C° 0 mm 3 m/s 742 mmHg 61%
    17:00 +24°C° 0 mm 3 m/s 742 mmHg 65%
    18:00 +24°C° 0 mm 2 m/s 742 mmHg 68%
    19:00 +21°C° 0 mm 2 m/s 742 mmHg 71%
    20:00 +19°C° 0 mm 2 m/s 743 mmHg 73%
    21:00 +17°C° 0 mm 2 m/s 743 mmHg 75%
    22:00 +16°C° 0 mm 2 m/s 743 mmHg 76%
    23:00 +16°C° 0 mm 3 m/s 743 mmHg 77%

    24 Iulie, Miercuri

    Timp Temperatura Precipitaţii Vânt Presiune Umiditate
    00:00 +14°C° 0 mm 3 m/s 743 mmHg 78%
    01:00 +14°C° 0 mm 2 m/s 743 mmHg 82%
    02:00 +14°C° 0 mm 2 m/s 743 mmHg 85%
    03:00 +13°C° 0 mm 2 m/s 743 mmHg 89%
    04:00 +14°C° 0 mm 2 m/s 743 mmHg 89%
    05:00 +13°C° 0 mm 3 m/s 743 mmHg 90%
    06:00 +13°C° 0 mm 3 m/s 743 mmHg 91%
    07:00 +16°C° 0 mm 3 m/s 743 mmHg 87%
    08:00 +17°C° 0 mm 3 m/s 743 mmHg 83%
    09:00 +19°C° 0 mm 3 m/s 743 mmHg 78%
    10:00 +20°C° 0.2 mm 4 m/s 743 mmHg 75%
    11:00 +21°C° 0.2 mm 4 m/s 743 mmHg 72%
    12:00 +22°C° 0.2 mm 4 m/s 743 mmHg 69%
    13:00 +22°C° 0.2 mm 4 m/s 743 mmHg 69%
    14:00 +22°C° 0.2 mm 4 m/s 743 mmHg 69%
    15:00 +22°C° 0.2 mm 4 m/s 743 mmHg 69%
    16:00 +22°C° 0.1 mm 3 m/s 743 mmHg 70%
    17:00 +22°C° 0.1 mm 3 m/s 743 mmHg 72%
    18:00 +22°C° 0.1 mm 3 m/s 743 mmHg 73%
    19:00 +20°C° 0 mm 3 m/s 743 mmHg 74%
    20:00 +18°C° 0 mm 3 m/s 743 mmHg 74%
    21:00 +17°C° 0 mm 3 m/s 743 mmHg 75%
    22:00 +16°C° 0 mm 3 m/s 743 mmHg 80%
    23:00 +14°C° 0 mm 3 m/s 743 mmHg 86%
    Arată mai mult